This is the latest recevied weather packets stored in our database for station/object LY3FF-10. If no packets are shown the sender has not sent any weather packets the latest 10 day(s).
| Time | Temp. | Humidity | Pressure | Rain* | Wind** | Luminosity | Snow |
|---|---|---|---|---|---|---|---|
| 1788431935 | 21.11° C | 63% | 995 hPa | - | - | - | - |
| 1788431203 | 21.11° C | 61% | 995.1 hPa | - | - | - | - |
| 1788430348 | 20.56° C | 59% | 995.1 hPa | - | - | - | - |
| 1788429580 | 20.56° C | 63% | 995.1 hPa | - | - | - | - |
| 1788428740 | 20.56° C | 68% | 995.3 hPa | - | - | - | - |
| 1788427870 | 25.56° C | 72% | 995.3 hPa | - | - | - | - |
| 1788427004 | 19.44° C | 71% | 995.4 hPa | - | - | - | - |
| 1788426190 | 20.56° C | 73% | 995.4 hPa | - | - | - | - |
| 1788425324 | 18.89° C | 72% | 995.5 hPa | - | - | - | - |
| 1788424505 | 17.78° C | 78% | 995.6 hPa | - | - | - | - |
| 1788423770 | 17.78° C | 79% | 995.6 hPa | - | - | - | - |
| 1788422870 | 17.78° C | 80% | 995.7 hPa | - | - | - | - |
| 1788421971 | 17.22° C | 81% | 995.7 hPa | - | - | - | - |
| 1788421100 | 17.22° C | 82% | 995.7 hPa | - | - | - | - |
| 1788420275 | 16.67° C | 83% | 995.8 hPa | - | - | - | - |
| 1788419424 | 16.67° C | 84% | 995.8 hPa | - | - | - | - |
| 1788418530 | 16.11° C | 85% | 995.6 hPa | - | - | - | - |
| 1788417725 | 16.11° C | 87% | 995.7 hPa | - | - | - | - |
| 1788416900 | 16.11° C | 88% | 995.7 hPa | - | - | - | - |
| 1788416064 | 15.56° C | 89% | 995.9 hPa | - | - | - | - |
| 1788415309 | 15.56° C | 90% | 995.8 hPa | - | - | - | - |
| 1788414575 | 15° C | 91% | 995.8 hPa | - | - | - | - |
| 1788413830 | 14.44° C | 92% | 995.8 hPa | - | - | - | - |
| 1788412970 | 14.44° C | 92% | 995.9 hPa | - | - | - | - |
| 1788412100 | 13.89° C | 93% | 995.8 hPa | - | - | - | - |
* Rain since midnight (hover to see other rain measurements)
** Current wind speed in m/s (hover to see current wind gust speed)